HODOYOSHI-4

Last updated on Tue Dec 16 2025 00:02:32 GMT+0000 (Coordinated Universal Time)

1 40011U 14033B 25349.36688905 .00002152 00000+0 24204-3 0 9999 2 40011 97.5418 178.1212 0023305 191.4423 168.6267 14.87495593621472
UTC large
Height (km)
Speed (km/s)
/
Latitude / Longitude
Inclination (degrees)
Orbital Period (minutes)
Azimuth
Elevation
Range (km)
Doppler Factor

Next 0 passes for location: London (51.5072 / 0.1276)

Sorry there are no passes over London.